Washington County, Minnesota, United States
Lat: 45.02N, Lon: 92.88W
Wx Zone: MNZ063
Local Info
Past Weather Observations for Today

NOTE: This archive is for the closest National Weather Service station to Washington County. Information may differ from the station used for current weather conditions.

Click here for Long-term Archive

Time Weather Temperature Dewpoint Humidity Pressure Winds Precip Visibility
20:53
Partly Cloudy
54°F / 12°C 41°F / 5°C 63% 30.06 in
(1018 mb)
SSE 10.4 mph
(SSE 17 kph)
- 10SM
19:53
Partly Cloudy
55°F / 13°C 41°F / 5°C 59% 30.06 in
(1018 mb)
SSE 9.2 mph
(SSE 15 kph)
- 10SM
18:53
Clear
55°F / 13°C 41°F / 5°C 59% 30.06 in
(1018 mb)
SE 15 mph
(SE 24 kph)
- 10SM
17:53
Partly Cloudy
57°F / 14°C 41°F / 5°C 55% 30.06 in
(1018 mb)
SE 15 mph
(SE 24 kph)
- 10SM
16:53
Clear
57°F / 14°C 43°F / 6°C 59% 30.06 in
(1018 mb)
SE 12.7 mph
(SE 20 kph)
- 10SM
15:53
Mostly Cloudy
57°F / 14°C 43°F / 6°C 59% 30.06 in
(1018 mb)
SSE 19.6 mph
(SSE 32 kph)
0.01 in
(0.25 mm)
10SM
14:53
Clear
59°F / 15°C 43°F / 6°C 55% 30.09 in
(1019 mb)
SSE 12.7 mph
(SSE 20 kph)
- 10SM
13:53
Mostly Cloudy
59°F / 15°C 41°F / 5°C 51% 30.12 in
(1020 mb)
SE 20.7 mph
(SE 33 kph)
- 10SM
12:53
Overcast
55°F / 13°C 41°F / 5°C 59% 30.12 in
(1020 mb)
SSE 19.6 mph
(SSE 32 kph)
- 10SM
11:53
Overcast
54°F / 12°C 41°F / 5°C 63% 30.15 in
(1021 mb)
SSE 16.1 mph
(SSE 26 kph)
- 10SM
10:53
Overcast
52°F / 11°C 39°F / 4°C 62% 30.18 in
(1022 mb)
SSE 17.3 mph
(SSE 28 kph)
- 10SM
09:53
Mostly Cloudy
50°F / 10°C 39°F / 4°C 67% 30.21 in
(1023 mb)
SE 15 mph
(SE 24 kph)
- 10SM
08:53
Partly Cloudy
46°F / 8°C 37°F / 3°C 71% 30.21 in
(1023 mb)
SE 16.1 mph
(SE 26 kph)
- 10SM
07:53
Clear
43°F / 6°C 37°F / 3°C 81% 30.21 in
(1023 mb)
SE 17.3 mph
(SE 28 kph)
- 10SM
06:53
Clear
41°F / 5°C 37°F / 3°C 87% 30.21 in
(1023 mb)
SE 10.4 mph
(SE 17 kph)
- 10SM
05:53
Clear
41°F / 5°C 37°F / 3°C 87% 30.24 in
(1024 mb)
SSE 12.7 mph
(SSE 20 kph)
- 10SM
04:53
Clear
41°F / 5°C 37°F / 3°C 87% 30.21 in
(1023 mb)
SSE 12.7 mph
(SSE 20 kph)
- 10SM
03:53
Clear
43°F / 6°C 37°F / 3°C 81% 30.21 in
(1023 mb)
SSE 15 mph
(SSE 24 kph)
- 10SM
02:53
Clear
43°F / 6°C 37°F / 3°C 81% 30.21 in
(1023 mb)
SE 16.1 mph
(SE 26 kph)
- 10SM
01:53
Clear
45°F / 7°C 37°F / 3°C 76% 30.21 in
(1023 mb)
SSE 13.8 mph
(SSE 22 kph)
- 10SM
00:53
Clear
45°F / 7°C 37°F / 3°C 76% 30.21 in
(1023 mb)
SSE 11.5 mph
(SSE 19 kph)
- 10SM
Time Weather Temperature Dewpoint Humidity Pressure Winds Precip Visibility


Weather for websites

WeatherForYou.com, LLC is not responsible for any damages or problems caused by this service. Current weather conditions are obtained from the closest station including government and personal stations which may have varying degrees of accuracy. Weather forecasts are derived from the NOAA NDFD. Like all things, this site belongs to Jesus Christ... He just trusts me to maintain it. If you have any questions or comments email webmaster@weatherforyou.com

Copyright © 2014, WeatherForYou.com LLC. All rights reserved.